TimeEDT,TemperatureF,Dew PointF,Humidity,Sea Level PressureIn,VisibilityMPH,Wind Direction,Wind SpeedMPH,Gust SpeedMPH,PrecipitationIn,Events,Conditions,WindDirDegrees,DateUTC
12:00 AM,54.1,52.9,95,-9999,-9999.0,SE,2.3,-,N/A,,Unknown,140,2012-10-05 04:00:00
1:00 AM,52.7,51.4,95,-9999,-9999.0,Calm,Calm,-,N/A,,Unknown,0,2012-10-05 05:00:00
2:00 AM,52,51,93,,,NE,2.3,,,,,50,2012-10-05 06:00:00
2:00 AM,51.6,50.5,96,-9999,-9999.0,NE,2.3,-,N/A,,Unknown,50,2012-10-05 06:00:00
3:00 AM,51.3,50.2,96,-9999,-9999.0,SSE,2.3,-,N/A,,Unknown,150,2012-10-05 07:00:00
4:00 AM,53.1,52.0,96,-9999,-9999.0,South,1.2,-,N/A,,Unknown,190,2012-10-05 08:00:00
5:00 AM,55.2,53.8,95,-9999,-9999.0,SSE,3.5,-,N/A,,Unknown,150,2012-10-05 09:00:00
6:00 AM,55.0,53.2,94,-9999,-9999.0,South,3.5,-,N/A,,Unknown,170,2012-10-05 10:00:00
7:00 AM,53.8,52.0,94,-9999,-9999.0,South,3.5,-,N/A,,Unknown,180,2012-10-05 11:00:00
8:00 AM,55,53,91,,,South,2.3,,,,,180,2012-10-05 12:00:00
8:00 AM,55.0,53.1,93,-9999,-9999.0,South,2.3,-,N/A,,Unknown,180,2012-10-05 12:00:00
9:00 AM,59.2,55.9,89,-9999,-9999.0,SSW,5.8,-,N/A,,Unknown,200,2012-10-05 13:00:00
10:00 AM,62.8,57.4,82,-9999,-9999.0,SSW,9.2,-,N/A,,Unknown,210,2012-10-05 14:00:00
11:00 AM,65.3,57.7,76,-9999,-9999.0,SSW,10.4,-,N/A,,Unknown,200,2012-10-05 15:00:00
12:00 PM,67.8,56.7,67,-9999,-9999.0,SW,11.5,-,N/A,,Unknown,220,2012-10-05 16:00:00
1:00 PM,71.2,57.9,63,-9999,-9999.0,SSW,11.5,20.7,N/A,,Unknown,210,2012-10-05 17:00:00
2:00 PM,70,56,53,,,SSW,11.5,,,,,210,2012-10-05 18:00:00
2:00 PM,70.3,56.5,61,-9999,-9999.0,SSW,11.5,-,N/A,,Unknown,210,2012-10-05 18:00:00
3:00 PM,72.0,53.4,52,-9999,-9999.0,SW,17.3,25.3,N/A,,Unknown,230,2012-10-05 19:00:00
4:00 PM,71.2,53.8,54,-9999,-9999.0,WSW,9.2,-,N/A,,Unknown,240,2012-10-05 20:00:00
5:00 PM,69.3,54.7,60,-9999,-9999.0,SW,9.2,-,N/A,,Unknown,220,2012-10-05 21:00:00
6:00 PM,66.7,55.6,67,-9999,-9999.0,SSW,4.6,-,N/A,,Unknown,210,2012-10-05 22:00:00
7:00 PM,65.3,55.9,72,-9999,-9999.0,SSW,4.6,-,N/A,,Unknown,200,2012-10-05 23:00:00
8:00 PM,65,56,64,,,South,4.6,,,,,190,2012-10-06 00:00:00
8:00 PM,64.9,55.8,72,-9999,-9999.0,South,4.6,-,N/A,,Unknown,190,2012-10-06 00:00:00
9:00 PM,61.9,55.9,81,-9999,-9999.0,SSW,6.9,-,N/A,,Unknown,200,2012-10-06 01:00:00
10:00 PM,61.3,54.9,79,-9999,-9999.0,South,3.5,-,N/A,,Unknown,190,2012-10-06 02:00:00
11:00 PM,60.8,55.2,82,-9999,-9999.0,South,2.3,-,N/A,,Unknown,180,2012-10-06 03:00:00